Time,TemperatureF,DewpointF,PressureIn,WindDirection,WindDirectionDegrees,WindSpeedMPH,WindSpeedGustMPH,Humidity,HourlyPrecipIn,Conditions,Clouds,dailyrainin,SoftwareType,DateUTC
2013-04-21 00:12:00,32.6,28.0,32.50,SSW,201,13.0,21.0,82,0.00,,,0.00,weatherlink.com 1.10,2013-04-21 06:12:00,
2013-04-21 00:27:00,32.5,28.0,32.50,SSW,208,13.0,20.0,83,0.00,,,0.00,weatherlink.com 1.10,2013-04-21 06:27:00,
2013-04-21 00:42:00,32.5,28.0,32.50,SSW,206,17.0,19.0,83,0.00,,,0.00,weatherlink.com 1.10,2013-04-21 06:42:00,
2013-04-21 00:57:00,32.4,28.0,32.50,SSE,167,13.0,19.0,84,0.00,,,0.00,weatherlink.com 1.10,2013-04-21 06:57:00,
2013-04-21 01:12:00,32.6,28.0,32.50,SSW,198,12.0,17.0,83,0.00,,,0.00,weatherlink.com 1.10,2013-04-21 07:12:00,
2013-04-21 01:27:00,32.7,28.0,32.50,SSW,199,14.0,19.0,81,0.00,,,0.00,weatherlink.com 1.10,2013-04-21 07:27:00,
2013-04-21 01:42:00,32.8,28.0,32.50,SW,215,14.0,22.0,81,0.00,,,0.00,weatherlink.com 1.10,2013-04-21 07:42:00,
2013-04-21 01:57:00,32.8,28.0,32.50,SW,219,13.0,17.0,81,0.00,,,0.00,weatherlink.com 1.10,2013-04-21 07:57:00,
2013-04-21 02:12:00,32.9,28.0,32.50,SSW,210,11.0,15.0,81,0.00,,,0.00,weatherlink.com 1.10,2013-04-21 08:12:00,
2013-04-21 02:27:00,32.6,28.0,32.50,SW,236,7.0,11.0,82,0.00,,,0.00,weatherlink.com 1.10,2013-04-21 08:27:00,
2013-04-21 02:42:00,32.8,28.0,32.50,SW,224,7.0,12.0,81,0.00,,,0.00,weatherlink.com 1.10,2013-04-21 08:42:00,
2013-04-21 02:57:00,32.6,28.0,32.50,WSW,239,3.0,10.0,83,0.00,,,0.00,weatherlink.com 1.10,2013-04-21 08:57:00,
2013-04-21 03:12:00,32.6,28.0,32.50,SSW,198,9.0,12.0,84,0.00,,,0.00,weatherlink.com 1.10,2013-04-21 09:12:00,
2013-04-21 03:27:00,32.6,28.0,32.50,SW,225,10.0,11.0,83,0.00,,,0.00,weatherlink.com 1.10,2013-04-21 09:27:00,
2013-04-21 03:42:00,33.0,28.0,32.50,WSW,253,3.0,14.0,83,0.00,,,0.00,weatherlink.com 1.10,2013-04-21 09:42:00,
2013-04-21 03:57:00,32.8,29.0,32.50,WSW,246,5.0,11.0,84,0.00,,,0.00,weatherlink.com 1.10,2013-04-21 09:57:00,
2013-04-21 04:12:00,33.1,28.0,32.50,West,259,10.0,16.0,80,0.00,,,0.00,weatherlink.com 1.10,2013-04-21 10:12:00,
2013-04-21 04:27:00,33.1,28.0,32.50,WNW,303,4.0,16.0,80,0.00,,,0.00,weatherlink.com 1.10,2013-04-21 10:27:00,
2013-04-21 04:42:00,33.0,28.0,32.50,WNW,290,5.0,14.0,81,0.00,,,0.00,weatherlink.com 1.10,2013-04-21 10:42:00,
2013-04-21 04:57:00,32.6,28.0,32.50,WNW,284,7.0,11.0,83,0.00,,,0.00,weatherlink.com 1.10,2013-04-21 10:57:00,
2013-04-21 05:12:00,32.4,28.0,32.50,WNW,288,10.0,11.0,83,0.00,,,0.00,weatherlink.com 1.10,2013-04-21 11:12:00,
2013-04-21 05:27:00,32.3,27.0,32.50,NW,313,5.0,14.0,82,0.00,,,0.00,weatherlink.com 1.10,2013-04-21 11:27:00,
2013-04-21 05:42:00,32.1,28.0,32.50,WNW,292,7.0,10.0,85,0.00,,,0.00,weatherlink.com 1.10,2013-04-21 11:42:00,
2013-04-21 05:57:00,31.7,28.0,32.50,West,266,3.0,8.0,86,0.00,,,0.00,weatherlink.com 1.10,2013-04-21 11:57:00,
2013-04-21 06:12:00,32.3,27.0,32.50,SSW,213,10.0,12.0,82,0.00,,,0.00,weatherlink.com 1.10,2013-04-21 12:12:00,
2013-04-21 06:27:00,32.5,26.0,32.50,West,277,8.0,17.0,77,0.00,,,0.00,weatherlink.com 1.10,2013-04-21 12:27:00,
2013-04-21 06:42:00,32.3,26.0,32.50,SW,234,11.0,12.0,79,0.00,,,0.00,weatherlink.com 1.10,2013-04-21 12:42:00,
2013-04-21 06:57:00,31.6,28.0,32.50,South,188,8.0,12.0,86,0.00,,,0.00,weatherlink.com 1.10,2013-04-21 12:57:00,
2013-04-21 07:12:00,31.2,28.0,32.50,South,180,8.0,12.0,89,0.00,,,0.00,weatherlink.com 1.10,2013-04-21 13:12:00,
2013-04-21 07:27:00,31.2,29.0,32.50,South,181,7.0,11.0,91,0.00,,,0.00,weatherlink.com 1.10,2013-04-21 13:27:00,
2013-04-21 07:42:00,31.2,29.0,32.50,South,169,6.0,9.0,91,0.00,,,0.00,weatherlink.com 1.10,2013-04-21 13:42:00,
2013-04-21 07:57:00,31.6,28.0,32.50,SW,221,13.0,15.0,85,0.00,,,0.00,weatherlink.com 1.10,2013-04-21 13:57:00,
2013-04-21 08:12:00,31.7,27.0,32.50,WSW,238,13.0,14.0,82,0.00,,,0.00,weatherlink.com 1.10,2013-04-21 14:12:00,
2013-04-21 08:27:00,31.6,27.0,32.50,SW,230,12.0,16.0,84,0.00,,,0.00,weatherlink.com 1.10,2013-04-21 14:27:00,
2013-04-21 08:42:00,31.5,28.0,32.50,SW,225,10.0,17.0,85,0.00,,,0.00,weatherlink.com 1.10,2013-04-21 14:42:00,
2013-04-21 08:57:00,31.8,27.0,32.50,WSW,242,10.0,14.0,81,0.00,,,0.00,weatherlink.com 1.10,2013-04-21 14:57:00,
2013-04-21 09:12:00,32.2,26.0,32.50,WSW,238,6.0,13.0,77,0.00,,,0.00,weatherlink.com 1.10,2013-04-21 15:12:00,
2013-04-21 09:27:00,32.1,26.0,32.50,West,259,6.0,12.0,79,0.00,,,0.00,weatherlink.com 1.10,2013-04-21 15:27:00,
2013-04-21 09:42:00,32.4,26.0,32.50,WSW,249,2.0,9.0,77,0.00,,,0.00,weatherlink.com 1.10,2013-04-21 15:42:00,
2013-04-21 09:57:00,32.7,27.0,32.50,West,281,3.0,6.0,78,0.00,,,0.00,weatherlink.com 1.10,2013-04-21 15:57:00,
2013-04-21 10:12:00,32.6,27.0,32.50,NW,304,5.0,7.0,79,0.00,,,0.00,weatherlink.com 1.10,2013-04-21 16:12:00,
2013-04-21 10:27:00,32.8,26.0,32.50,NW,305,4.0,7.0,76,0.00,,,0.00,weatherlink.com 1.10,2013-04-21 16:27:00,
2013-04-21 10:42:00,33.7,27.0,32.50,West,263,2.0,9.0,77,0.00,,,0.00,weatherlink.com 1.10,2013-04-21 16:42:00,
2013-04-21 10:57:00,33.5,27.0,32.50,WNW,291,4.0,9.0,76,0.00,,,0.00,weatherlink.com 1.10,2013-04-21 16:57:00,
2013-04-21 11:12:00,33.3,27.0,32.50,West,265,2.0,7.0,78,0.00,,,0.00,weatherlink.com 1.10,2013-04-21 17:12:00,
2013-04-21 11:27:00,33.2,28.0,32.50,WNW,300,4.0,8.0,81,0.00,,,0.00,weatherlink.com 1.10,2013-04-21 17:27:00,
2013-04-21 11:42:00,32.3,29.0,32.50,WNW,286,8.0,12.0,87,0.00,,,0.00,weatherlink.com 1.10,2013-04-21 17:42:00,
2013-04-21 11:58:00,31.9,30.0,32.50,NW,311,3.0,11.0,91,0.00,,,0.00,weatherlink.com 1.10,2013-04-21 17:58:00,
2013-04-21 12:13:00,31.2,28.0,32.50,WNW,283,7.0,11.0,88,0.00,,,0.00,weatherlink.com 1.10,2013-04-21 18:13:00,
2013-04-21 12:28:00,32.5,29.0,32.50,WNW,292,4.0,7.0,87,0.00,,,0.00,weatherlink.com 1.10,2013-04-21 18:28:00,
2013-04-21 12:43:00,34.8,29.0,32.50,NW,313,3.0,6.0,78,0.00,,,0.00,weatherlink.com 1.10,2013-04-21 18:43:00,
2013-04-21 12:58:00,35.7,28.0,32.50,WSW,238,4.0,9.0,74,0.00,,,0.00,weatherlink.com 1.10,2013-04-21 18:58:00,
2013-04-21 13:13:00,34.8,27.0,32.50,WNW,286,4.0,8.0,72,0.00,,,0.00,weatherlink.com 1.10,2013-04-21 19:13:00,
2013-04-21 13:28:00,34.1,27.0,32.50,NW,307,9.0,12.0,74,0.00,,,0.00,weatherlink.com 1.10,2013-04-21 19:28:00,
2013-04-21 13:43:00,34.4,27.0,32.50,NW,313,4.0,11.0,75,0.00,,,0.00,weatherlink.com 1.10,2013-04-21 19:43:00,
2013-04-21 13:58:00,34.9,27.0,32.50,West,280,6.0,15.0,74,0.00,,,0.00,weatherlink.com 1.10,2013-04-21 19:58:00,
2013-04-21 14:13:00,34.6,29.0,32.50,SSW,211,12.0,14.0,80,0.00,,,0.00,weatherlink.com 1.10,2013-04-21 20:13:00,
2013-04-21 14:28:00,36.4,28.0,32.50,WNW,300,9.0,13.0,72,0.00,,,0.00,weatherlink.com 1.10,2013-04-21 20:28:00,
2013-04-21 14:43:00,36.0,26.0,32.50,WNW,290,8.0,24.0,66,0.00,,,0.00,weatherlink.com 1.10,2013-04-21 20:43:00,
2013-04-21 14:58:00,35.7,29.0,32.50,West,261,2.0,19.0,76,0.00,,,0.00,weatherlink.com 1.10,2013-04-21 20:58:00,
2013-04-21 15:13:00,37.1,30.0,32.50,SW,222,12.0,14.0,75,0.00,,,0.00,weatherlink.com 1.10,2013-04-21 21:13:00,
2013-04-21 15:28:00,36.5,25.0,32.50,SW,227,10.0,24.0,63,0.00,,,0.00,weatherlink.com 1.10,2013-04-21 21:28:00,
2013-04-21 15:43:00,35.2,27.0,32.50,WNW,296,7.0,16.0,71,0.00,,,0.00,weatherlink.com 1.10,2013-04-21 21:43:00,
2013-04-21 15:58:00,36.0,26.0,32.50,NW,325,3.0,10.0,68,0.00,,,0.00,weatherlink.com 1.10,2013-04-21 21:58:00,
2013-04-21 16:13:00,35.9,27.0,32.50,NW,319,9.0,10.0,69,0.00,,,0.00,weatherlink.com 1.10,2013-04-21 22:13:00,
2013-04-21 16:28:00,34.6,26.0,32.50,WNW,297,8.0,11.0,71,0.00,,,0.00,weatherlink.com 1.10,2013-04-21 22:28:00,
2013-04-21 16:43:00,34.2,26.0,32.50,North,5,8.0,13.0,73,0.00,,,0.00,weatherlink.com 1.10,2013-04-21 22:43:00,
2013-04-21 16:58:00,29.1,25.0,32.50,North,10,14.0,17.0,84,0.00,,,0.00,weatherlink.com 1.10,2013-04-21 22:58:00,
2013-04-21 17:13:00,27.4,24.0,32.50,North,360,12.0,20.0,88,0.00,,,0.00,weatherlink.com 1.10,2013-04-21 23:13:00,
2013-04-21 17:28:00,26.7,25.0,32.50,NNW,342,14.0,18.0,91,0.00,,,0.00,weatherlink.com 1.10,2013-04-21 23:28:00,
2013-04-21 17:43:00,26.1,24.0,32.50,North,9,12.0,18.0,92,0.00,,,0.00,weatherlink.com 1.10,2013-04-21 23:43:00,
2013-04-21 17:58:00,25.2,23.0,32.50,NNE,15,9.0,16.0,92,0.00,,,0.00,weatherlink.com 1.10,2013-04-21 23:58:00,
2013-04-21 18:13:00,25.0,23.0,32.50,NNE,24,10.0,16.0,92,0.00,,,0.00,weatherlink.com 1.10,2013-04-22 00:13:00,
2013-04-21 18:28:00,23.9,22.0,32.50,ENE,63,16.0,22.0,92,0.00,,,0.00,weatherlink.com 1.10,2013-04-22 00:28:00,
2013-04-21 18:58:00,22.7,21.0,32.50,ENE,63,16.0,16.0,91,0.00,,,0.00,weatherlink.com 1.10,2013-04-22 00:58:00,
2013-04-21 19:13:00,22.3,20.0,32.50,NE,38,15.0,22.0,92,0.00,,,0.00,weatherlink.com 1.10,2013-04-22 01:13:00,
2013-04-21 19:28:00,21.6,19.0,32.50,NE,49,10.0,23.0,91,0.00,,,0.00,weatherlink.com 1.10,2013-04-22 01:28:00,
2013-04-21 19:43:00,21.2,19.0,32.50,North,5,5.0,17.0,91,0.00,,,0.00,weatherlink.com 1.10,2013-04-22 01:43:00,
2013-04-21 19:58:00,21.0,19.0,32.50,NE,49,11.0,19.0,91,0.00,,,0.00,weatherlink.com 1.10,2013-04-22 01:58:00,
2013-04-21 20:13:00,20.8,19.0,32.50,NE,39,10.0,16.0,91,0.00,,,0.00,weatherlink.com 1.10,2013-04-22 02:13:00,
2013-04-21 20:28:00,20.2,18.0,32.50,NE,44,11.0,14.0,91,0.00,,,0.00,weatherlink.com 1.10,2013-04-22 02:28:00,
2013-04-21 20:43:00,19.8,18.0,32.50,NE,34,9.0,17.0,91,0.00,,,0.00,weatherlink.com 1.10,2013-04-22 02:43:00,
2013-04-21 20:58:00,19.4,17.0,32.50,NNE,16,7.0,14.0,91,0.00,,,0.00,weatherlink.com 1.10,2013-04-22 02:58:00,
2013-04-21 21:14:00,18.8,17.0,32.50,NE,35,8.0,16.0,91,0.00,,,0.00,weatherlink.com 1.10,2013-04-22 03:14:00,
2013-04-21 21:29:00,18.4,16.0,32.50,NE,36,8.0,17.0,90,0.00,,,0.00,weatherlink.com 1.10,2013-04-22 03:29:00,
2013-04-21 21:44:00,17.9,16.0,32.50,ENE,62,9.0,17.0,90,0.00,,,0.00,weatherlink.com 1.10,2013-04-22 03:44:00,
2013-04-21 21:59:00,17.5,15.0,32.50,NNE,26,9.0,15.0,90,0.00,,,0.00,weatherlink.com 1.10,2013-04-22 03:59:00,
2013-04-21 22:14:00,17.1,15.0,32.50,ENE,63,11.0,15.0,90,0.00,,,0.00,weatherlink.com 1.10,2013-04-22 04:14:00,
2013-04-21 22:29:00,16.8,14.0,32.50,NE,36,4.0,14.0,90,0.00,,,0.00,weatherlink.com 1.10,2013-04-22 04:29:00,
2013-04-21 22:44:00,16.4,14.0,32.50,NNE,12,3.0,14.0,90,0.00,,,0.00,weatherlink.com 1.10,2013-04-22 04:44:00,
2013-04-21 22:59:00,16.4,14.0,32.50,NNW,329,7.0,8.0,90,0.00,,,0.00,weatherlink.com 1.10,2013-04-22 04:59:00,
2013-04-21 23:14:00,16.2,14.0,32.50,North,11,6.0,12.0,90,0.00,,,0.00,weatherlink.com 1.10,2013-04-22 05:14:00,
2013-04-21 23:29:00,15.8,13.0,32.50,NNE,15,3.0,10.0,90,0.00,,,0.00,weatherlink.com 1.10,2013-04-22 05:29:00,
2013-04-21 23:44:00,15.6,13.0,32.50,NE,52,8.0,12.0,90,0.00,,,0.00,weatherlink.com 1.10,2013-04-22 05:44:00,
2013-04-21 23:59:00,15.5,13.0,32.50,NW,315,8.0,12.0,90,0.00,,,0.00,weatherlink.com 1.10,2013-04-22 05:59:00,